COSMOS 1546 1 14867U 84031A 21060.76909068 -.00000114 00000-0 00000-0 0 9993 2 14867 12.3024 327.1508 0023919 337.5413 207.7306 1.00286970 27980 SL-12 R/B(2) 1 14951U 84031F 21060.02747234 -.00000234 00000-0 00000-0 0 9994 2 14951 12.6694 328.1728 0011174 192.1538 352.4105 0.99429098100577